Hulett, WY

4:18 PM MDT on July 21, 2017 (GMT -0600)
Hulett

Weather History for KW43 - December, 2013

Change the Weather History Date:

Sunday, December 22, 2013

  Actual Average (KEFC) Record (KEFC)
Temperature  
Mean Temperature 10 °F -  
Max Temperature 17 °F 33 °F 60 °F (1972)
Min Temperature 3 °F 10 °F -44 °F (1989)
Degree Days  
Heating Degree Days 55    
Moisture  
Dew Point 7 °F    
Average Humidity 84    
Maximum Humidity 93    
Minimum Humidity 73    
Precipitation  
Precipitation 0.00 in - - ()
Sea Level Pressure  
Sea Level Pressure 30.06 in    
Wind  
Wind Speed 5 mph (WNW)    
Max Wind Speed 10 mph    
Max Gust Speed -    
Visibility 8 miles    
Events Snow    
Averages and records for this station are not official NWS values.
T = Trace of Precipitation, MM = Missing Value Source: NWS Daily Summary

Daily Weather History Graph

Daily Weather History Graph

Search for Another Location

Airport or City:

Trip Planner

Search our weather history database for the weather conditions in past years. The results will help you decide how hot, cold, wet, or windy it might be!

Date:

Astronomy

Dec. 22, 2013 Rise Set
Actual Time 7:32 AM MST 4:21 PM MST
Civil Twilight 6:59 AM MST 4:55 PM MST
Nautical Twilight 6:22 AM MST 5:32 PM MST
Astronomical Twilight 5:46 AM MST 6:07 PM MST
Moon 9:48 PM MST (12/22) 10:19 AM MST (12/22)
Length of Visible Light 9h 55m
Length of Day
8h 48m
Waning Gibbous, 76% of the Moon is Illuminated
Dec 22
Waning Gibbous
Dec 25
Last Quarter
Jan 1
New
Jan 7
First Quarter
Jan 15
Full

Hourly Weather History & Observations

Time (MST) Temp. Windchill Dew Point Humidity Pressure Visibility Wind Dir Wind Speed Gust Speed Precip Events Conditions
12:15 AM 17.6 °F 7.3 °F 14.0 °F 86% 29.92 in 10.0 mi WSW 8.1 mph - N/A Snow Light Snow
12:35 AM 17.6 °F 8.2 °F 14.0 °F 86% 29.92 in 10.0 mi WSW 6.9 mph - N/A Snow Light Snow
12:55 AM 17.6 °F 8.2 °F 12.2 °F 79% 29.92 in 10.0 mi WSW 6.9 mph - N/A Snow Light Snow
1:15 AM 17.6 °F 10.7 °F 12.2 °F 79% 29.92 in 7.0 mi West 4.6 mph - N/A Snow Light Snow
1:35 AM 17.6 °F - 12.2 °F 79% 29.92 in 7.0 mi North - - N/A Snow Light Snow
1:55 AM 17.6 °F - 12.2 °F 79% 29.92 in 10.0 mi North - - N/A Snow Light Snow
2:15 AM 15.8 °F - 12.2 °F 86% 29.93 in 10.0 mi North - - N/A Snow Light Snow
2:35 AM 15.8 °F - 12.2 °F 86% 29.94 in 10.0 mi North - - N/A   Overcast
2:55 AM 15.8 °F - 12.2 °F 86% 29.94 in 10.0 mi North - - N/A Snow Light Snow
3:15 AM 15.8 °F 8.6 °F 12.2 °F 86% 29.93 in 10.0 mi SSW 4.6 mph - N/A   Overcast
3:35 AM 15.8 °F 6.1 °F 12.2 °F 86% 29.94 in 10.0 mi WSW 6.9 mph - N/A Snow Light Snow
3:55 AM 14.0 °F - 12.2 °F 93% 29.94 in 10.0 mi North - - N/A Snow Light Snow
4:15 AM 14.0 °F 3.9 °F 10.4 °F 86% 29.94 in 10.0 mi WSW 6.9 mph - N/A   Overcast
4:35 AM 14.0 °F 3.9 °F 10.4 °F 86% 29.95 in 10.0 mi SW 6.9 mph - N/A   Overcast
4:55 AM 14.0 °F 5.1 °F 10.4 °F 86% 29.95 in 10.0 mi SW 5.8 mph - N/A   Overcast
5:15 AM 14.0 °F 6.5 °F 10.4 °F 86% 29.95 in 10.0 mi West 4.6 mph - N/A Snow Light Snow
5:35 AM 14.0 °F - 10.4 °F 86% 29.95 in 7.0 mi Calm Calm - N/A Snow Light Snow
5:55 AM 12.2 °F 1.7 °F 8.6 °F 85% 29.93 in 10.0 mi SSW 6.9 mph - N/A Snow Light Snow
6:15 AM 12.2 °F 2.9 °F 8.6 °F 85% 29.95 in 7.0 mi SW 5.8 mph - N/A   Overcast
6:35 AM 12.2 °F - 10.4 °F 92% 29.97 in 10.0 mi North - - N/A   Mostly Cloudy
6:55 AM 14.0 °F - 10.4 °F 86% 29.98 in 10.0 mi Calm Calm - N/A   Overcast
7:15 AM 14.0 °F - 10.4 °F 86% 29.97 in 10.0 mi Calm Calm - N/A   Overcast
7:35 AM 12.2 °F 6.1 °F 10.4 °F 92% 29.97 in 10.0 mi South 3.5 mph - N/A   Mostly Cloudy
7:55 AM 10.4 °F 2.2 °F 6.8 °F 85% 29.98 in 10.0 mi South 4.6 mph - N/A   Scattered Clouds
8:15 AM 10.4 °F - 8.6 °F 92% 29.98 in 10.0 mi Calm Calm - N/A Snow Light Snow
8:35 AM 12.2 °F - 8.6 °F 85% 29.99 in 10.0 mi Calm Calm - N/A   Overcast
8:55 AM 12.2 °F - 10.4 °F 92% 29.99 in 1.5 mi Calm Calm - N/A Snow Light Snow
9:15 AM 14.0 °F - 10.4 °F 86% 30.00 in 7.0 mi Calm Calm - N/A Snow Light Snow
9:35 AM 14.0 °F 8.2 °F 10.4 °F 86% 30.01 in 7.0 mi NNE 3.5 mph - N/A   Overcast
9:55 AM 14.0 °F 5.1 °F 10.4 °F 86% 30.02 in 10.0 mi NNE 5.8 mph - N/A   Overcast
10:15 AM 15.8 °F 7.2 °F 10.4 °F 79% 30.03 in 2.0 mi NNE 5.8 mph - N/A Snow Light Snow
10:35 AM 15.8 °F 4.2 °F 10.4 °F 79% 30.03 in 4.0 mi North 9.2 mph - N/A Snow Light Snow
10:55 AM 14.0 °F 3.9 °F 10.4 °F 86% 30.03 in 5.0 mi North 6.9 mph - N/A Snow Light Snow
11:15 AM 14.0 °F 5.1 °F 10.4 °F 86% 30.04 in 5.0 mi North 5.8 mph - N/A Snow Light Snow
11:35 AM 14.0 °F 6.5 °F 10.4 °F 86% 30.04 in 4.0 mi NNW 4.6 mph - N/A   Haze
11:55 AM 14.0 °F 5.1 °F 8.6 °F 79% 30.04 in 2.5 mi North 5.8 mph - N/A Snow Light Snow
12:15 PM 14.0 °F 3.9 °F 8.6 °F 79% 30.04 in 2.0 mi NNE 6.9 mph - N/A Snow Light Snow
12:35 PM 12.2 °F 0.7 °F 8.6 °F 85% 30.05 in 1.8 mi North 8.1 mph - N/A Snow Light Snow
12:55 PM 10.4 °F - 5.0 °F 79% 30.05 in 3.0 mi North - - N/A   Haze
1:15 PM 10.4 °F -3.3 °F 5.0 °F 79% 30.06 in 7.0 mi North 10.4 mph - N/A Snow Light Snow
1:35 PM 10.4 °F -0.4 °F 5.0 °F 79% 30.06 in 4.0 mi North 6.9 mph - N/A Snow Light Snow
1:55 PM 10.4 °F 4.0 °F 5.0 °F 79% 30.06 in 7.0 mi North 3.5 mph - N/A Snow Light Snow
2:15 PM 10.4 °F - 5.0 °F 79% 30.06 in 10.0 mi Calm Calm - N/A   Overcast
2:35 PM 10.4 °F 2.2 °F 3.2 °F 73% 30.08 in 10.0 mi North 4.6 mph - N/A   Overcast
2:55 PM 10.4 °F 0.8 °F 5.0 °F 79% 30.09 in 10.0 mi NNW 5.8 mph - N/A   Overcast
3:15 PM 8.6 °F -1.3 °F 3.2 °F 79% 30.10 in 10.0 mi NNW 5.8 mph - N/A   Mostly Cloudy
3:35 PM 8.6 °F - 3.2 °F 79% 30.11 in 10.0 mi North - - N/A   Scattered Clouds
3:55 PM 8.6 °F - 3.2 °F 79% 30.12 in 10.0 mi North - - N/A   Mostly Cloudy
4:15 PM 8.6 °F - 3.2 °F 79% 30.13 in 10.0 mi North - - N/A   Overcast
4:35 PM 8.6 °F - 3.2 °F 79% 30.14 in 10.0 mi North - - N/A   Overcast
4:55 PM 8.6 °F - 3.2 °F 79% 30.15 in 10.0 mi North - - N/A   Overcast
5:15 PM 8.6 °F 0.1 °F 3.2 °F 79% 30.15 in 10.0 mi NW 4.6 mph - N/A Snow Light Snow
5:35 PM 8.6 °F - 3.2 °F 79% 30.16 in 10.0 mi North - - N/A Snow Light Snow
5:55 PM 8.6 °F -1.3 °F 3.2 °F 79% 30.17 in 10.0 mi NNW 5.8 mph - N/A   Overcast
6:15 PM 8.6 °F -1.3 °F 3.2 °F 79% 30.18 in 10.0 mi NNW 5.8 mph - N/A Snow Light Snow
6:35 PM 8.6 °F -2.6 °F 3.2 °F 79% 30.19 in 7.0 mi NNW 6.9 mph - N/A Snow Light Snow
6:55 PM 6.8 °F -4.8 °F 3.2 °F 85% 30.19 in 7.0 mi North 6.9 mph - N/A Snow Light Snow
7:15 PM 5.0 °F - 1.4 °F 85% 30.20 in 5.0 mi North - - N/A Snow Light Snow
7:35 PM 5.0 °F - 1.4 °F 85% 30.20 in 7.0 mi Calm Calm - N/A Snow Light Snow
7:55 PM 3.2 °F - 1.4 °F 92% 30.20 in 10.0 mi Calm Calm - N/A Snow Light Snow
8:15 PM 5.0 °F - 1.4 °F 85% 30.21 in 4.0 mi North - - N/A Snow Light Snow
8:35 PM 3.2 °F -4.2 °F -0.4 °F 85% 30.21 in 7.0 mi SW 3.5 mph - N/A Snow Light Snow
8:55 PM 3.2 °F - -0.4 °F 85% 30.22 in 10.0 mi Calm Calm - N/A   Mostly Cloudy
9:15 PM 3.2 °F -4.2 °F -0.4 °F 85% 30.22 in 10.0 mi SSW 3.5 mph - N/A   Overcast
9:35 PM 3.2 °F -9.1 °F -0.4 °F 85% 30.22 in 5.0 mi SSW 6.9 mph - N/A Snow Light Snow
9:55 PM 3.2 °F -6.2 °F 1.4 °F 92% 30.21 in 7.0 mi South 4.6 mph - N/A Snow Light Snow
10:15 PM 3.2 °F -10.3 °F -0.4 °F 85% 30.22 in 10.0 mi South 8.1 mph - N/A   Overcast
10:35 PM 5.0 °F -5.6 °F 1.4 °F 85% 30.21 in 10.0 mi SW 5.8 mph - N/A   Overcast
10:55 PM 5.0 °F -8.1 °F 1.4 °F 85% 30.22 in 10.0 mi SSW 8.1 mph - N/A   Overcast
11:15 PM 5.0 °F -10.0 °F 1.4 °F 85% 30.22 in 10.0 mi SSW 10.4 mph - N/A   Overcast
11:35 PM 5.0 °F -10.0 °F 1.4 °F 85% 30.22 in 10.0 mi SSW 10.4 mph - N/A   Overcast
11:55 PM 5.0 °F -8.1 °F 1.4 °F 85% 30.22 in 10.0 mi SSW 8.1 mph - N/A   Mostly Cloudy